DLH2022 EDDH-EHAM

Flight info

Callsign DLH2022
Flight time 0h 47m
Altitude 30000
Route WSN5C/05 WSN N125 BLUFA
Aircraft A320/M-SDE3FGHIRWY/LB1

Departure

Time 2026-05-07 13:49
Airport Hamburg Helmut Schmidt Airport (EDDH)

Arrival

Time 2026-05-07 14:36
Airport Amsterdam Airport Schiphol (EHAM)
Time Latitude Longitude Altitude Speed Heading
2026-05-07 13:19 53.63168 10.00368 48 ft 0 kts 86°
2026-05-07 13:36 53.63167 10.00350 48 ft 4 kts 88°
2026-05-07 13:37 53.63167 10.00323 48 ft 4 kts 90°
2026-05-07 13:37 53.63168 10.00277 48 ft 4 kts 99°
2026-05-07 13:37 53.63176 10.00235 47 ft 4 kts 126°
2026-05-07 13:37 53.63184 10.00219 48 ft 0 kts 161°
2026-05-07 13:38 53.63193 10.00215 46 ft 2 kts 147°
2026-05-07 13:38 53.63206 10.00197 48 ft 2 kts 143°
2026-05-07 13:38 53.63220 10.00182 48 ft 2 kts 161°
2026-05-07 13:38 53.63231 10.00177 47 ft 0 kts 173°
2026-05-07 13:41 53.63215 10.00180 48 ft 9 kts 174°
2026-05-07 13:41 53.63153 10.00186 48 ft 9 kts 178°
2026-05-07 13:41 53.63096 10.00192 48 ft 8 kts 174°
2026-05-07 13:41 53.63036 10.00148 48 ft 14 kts 212°
2026-05-07 13:42 53.62953 10.00058 48 ft 12 kts 214°
2026-05-07 13:42 53.62879 10.00039 48 ft 10 kts 192°
2026-05-07 13:42 53.62825 9.99981 48 ft 7 kts 213°
2026-05-07 13:42 53.62817 9.99973 48 ft 0 kts 210°
2026-05-07 13:43 53.62816 9.99972 48 ft 0 kts 210°
2026-05-07 13:43 53.62761 9.99920 46 ft 21 kts 207°
2026-05-07 13:43 53.62642 9.99775 47 ft 20 kts 244°
2026-05-07 13:44 53.62614 9.99547 47 ft 19 kts 258°
2026-05-07 13:44 53.62591 9.99336 44 ft 16 kts 257°
2026-05-07 13:44 53.62570 9.99155 47 ft 15 kts 259°
2026-05-07 13:44 53.62550 9.98985 44 ft 14 kts 259°
2026-05-07 13:45 53.62531 9.98818 47 ft 16 kts 260°
2026-05-07 13:45 53.62507 9.98601 45 ft 21 kts 259°
2026-05-07 13:45 53.62476 9.98334 45 ft 20 kts 260°
2026-05-07 13:45 53.62441 9.98113 45 ft 20 kts 243°
2026-05-07 13:46 53.62351 9.97931 47 ft 23 kts 230°
2026-05-07 13:46 53.62236 9.97700 47 ft 29 kts 230°
2026-05-07 13:46 53.62105 9.97433 47 ft 28 kts 230°
2026-05-07 13:46 53.61970 9.97161 47 ft 31 kts 230°
2026-05-07 13:47 53.61834 9.96884 47 ft 30 kts 230°
2026-05-07 13:47 53.61719 9.96651 47 ft 14 kts 230°
2026-05-07 13:47 53.61668 9.96529 44 ft 14 kts 255°
2026-05-07 13:47 53.61729 9.96409 47 ft 17 kts
2026-05-07 13:48 53.61852 9.96441 45 ft 14 kts 19°
2026-05-07 13:48 53.61902 9.96523 44 ft 0 kts 51°
2026-05-07 13:48 53.61950 9.96620 43 ft 43 kts 50°
2026-05-07 13:48 53.62307 9.97340 40 ft 113 kts 50°
2026-05-07 13:49 53.62922 9.98583 177 ft 153 kts 50°
2026-05-07 13:49 53.63617 10.00060 704 ft 169 kts 53°
2026-05-07 13:49 53.64378 10.01738 1301 ft 192 kts 53°
2026-05-07 13:49 53.65237 10.03543 2059 ft 200 kts 51°
2026-05-07 13:50 53.66147 10.05351 2982 ft 203 kts 50°
2026-05-07 13:50 53.67068 10.07169 3918 ft 205 kts 51°
2026-05-07 13:50 53.68004 10.09026 4713 ft 211 kts 50°
2026-05-07 13:50 53.69204 10.10448 5250 ft 219 kts 19°
2026-05-07 13:51 53.70732 10.10480 6113 ft 229 kts 346°
2026-05-07 13:51 53.72120 10.08904 6571 ft 261 kts 311°
2026-05-07 13:51 53.73139 10.06219 7164 ft 279 kts 301°
2026-05-07 13:51 53.74023 10.03253 8070 ft 285 kts 297°
2026-05-07 13:52 53.74631 10.00054 9041 ft 289 kts 278°
2026-05-07 13:52 53.74678 9.96670 10049 ft 290 kts 264°
2026-05-07 13:52 53.74235 9.93279 10643 ft 306 kts 250°
2026-05-07 13:52 53.73383 9.89839 10961 ft 328 kts 247°
2026-05-07 13:53 53.72468 9.86238 11632 ft 337 kts 247°
2026-05-07 13:53 53.71537 9.82574 12446 ft 341 kts 247°
2026-05-07 13:53 53.70597 9.78876 13280 ft 345 kts 247°
2026-05-07 13:53 53.69646 9.75139 14066 ft 348 kts 247°
2026-05-07 13:54 53.68685 9.71366 14794 ft 351 kts 247°
2026-05-07 13:54 53.67715 9.67567 15541 ft 354 kts 247°
2026-05-07 13:54 53.66751 9.63790 16243 ft 357 kts 247°
2026-05-07 13:54 53.65761 9.59924 16914 ft 361 kts 246°
2026-05-07 13:55 53.64529 9.56219 17639 ft 365 kts 236°
2026-05-07 13:55 53.63040 9.52741 18356 ft 367 kts 235°
2026-05-07 13:55 53.61536 9.49244 18970 ft 370 kts 234°
2026-05-07 13:55 53.60018 9.45716 19575 ft 373 kts 235°
2026-05-07 13:56 53.58492 9.42168 20222 ft 375 kts 234°
2026-05-07 13:56 53.56956 9.38605 20879 ft 377 kts 234°
2026-05-07 13:56 53.55408 9.35016 21483 ft 381 kts 234°
2026-05-07 13:56 53.53843 9.31397 22064 ft 384 kts 234°
2026-05-07 13:57 53.52267 9.27753 22669 ft 387 kts 234°
2026-05-07 13:57 53.50680 9.24082 23277 ft 390 kts 234°
2026-05-07 13:57 53.49082 9.20382 23787 ft 393 kts 234°
2026-05-07 13:57 53.47470 9.16655 24250 ft 396 kts 234°
2026-05-07 13:58 53.45848 9.12907 24733 ft 398 kts 234°
2026-05-07 13:58 53.44214 9.09145 25181 ft 400 kts 234°
2026-05-07 13:58 53.42564 9.05356 25584 ft 404 kts 234°
2026-05-07 13:58 53.40897 9.01548 26021 ft 406 kts 234°
2026-05-07 13:59 53.39224 8.97737 26429 ft 408 kts 234°
2026-05-07 13:59 53.37531 8.93888 26821 ft 411 kts 234°
2026-05-07 13:59 53.35839 8.90009 27222 ft 414 kts 236°
2026-05-07 13:59 53.34403 8.85826 27644 ft 416 kts 245°
2026-05-07 14:00 53.33349 8.81371 27987 ft 419 kts 250°
2026-05-07 14:00 53.31346 8.72207 28078 ft 419 kts 250°
2026-05-07 14:01 53.29324 8.63065 28077 ft 420 kts 249°
2026-05-07 14:01 53.27308 8.53929 28073 ft 419 kts 250°
2026-05-07 14:02 53.25361 8.44746 28074 ft 419 kts 252°
2026-05-07 14:02 53.23926 8.37023 28073 ft 419 kts 253°
2026-05-07 14:03 53.22248 8.27692 28078 ft 420 kts 253°
2026-05-07 14:03 53.20512 8.18411 28076 ft 419 kts 252°
2026-05-07 14:04 53.18731 8.09165 28065 ft 419 kts 252°
2026-05-07 14:04 53.16980 7.99924 28072 ft 418 kts 252°
2026-05-07 14:05 53.15236 7.90667 28070 ft 418 kts 252°
2026-05-07 14:05 53.13489 7.81447 28070 ft 419 kts 252°
2026-05-07 14:06 53.11719 7.72211 28061 ft 418 kts 252°
2026-05-07 14:06 53.09950 7.63056 28066 ft 420 kts 252°
2026-05-07 14:07 53.08153 7.53780 28059 ft 421 kts 252°
2026-05-07 14:07 53.06354 7.44498 28060 ft 422 kts 252°
2026-05-07 14:08 53.04541 7.35225 28062 ft 422 kts 251°
2026-05-07 14:08 53.02720 7.25959 28052 ft 421 kts 251°
2026-05-07 14:09 53.00903 7.16753 28061 ft 419 kts 251°
2026-05-07 14:09 52.99986 7.12208 27856 ft 410 kts 251°
2026-05-07 14:09 52.99081 7.07773 27601 ft 402 kts 250°
2026-05-07 14:09 52.98183 7.03404 27331 ft 399 kts 251°
2026-05-07 14:10 52.97289 6.99052 27073 ft 398 kts 251°
2026-05-07 14:10 52.96396 6.94709 26811 ft 396 kts 251°
2026-05-07 14:10 52.95508 6.90393 26553 ft 394 kts 250°
2026-05-07 14:10 52.94624 6.86106 26288 ft 393 kts 250°
2026-05-07 14:11 52.93742 6.81832 25792 ft 391 kts 251°
2026-05-07 14:11 52.92866 6.77581 25292 ft 388 kts 251°
2026-05-07 14:11 52.91996 6.73365 24802 ft 385 kts 251°
2026-05-07 14:11 52.91143 6.69233 24329 ft 382 kts 250°
2026-05-07 14:12 52.90281 6.65085 23859 ft 380 kts 251°
2026-05-07 14:12 52.89422 6.60954 23340 ft 378 kts 251°
2026-05-07 14:12 52.88568 6.56855 22777 ft 375 kts 251°
2026-05-07 14:12 52.87718 6.52783 22229 ft 373 kts 251°
2026-05-07 14:13 52.86869 6.48738 21690 ft 371 kts 251°
2026-05-07 14:13 52.86023 6.44724 21167 ft 369 kts 251°
2026-05-07 14:13 52.85178 6.40722 20653 ft 367 kts 251°
2026-05-07 14:13 52.84341 6.36759 20148 ft 364 kts 251°
2026-05-07 14:14 52.83357 6.32917 19647 ft 362 kts 242°
2026-05-07 14:14 52.82002 6.29426 19148 ft 360 kts 236°
2026-05-07 14:14 52.80576 6.26036 18675 ft 358 kts 236°
2026-05-07 14:14 52.79154 6.22665 18106 ft 358 kts 236°
2026-05-07 14:15 52.77727 6.19287 17513 ft 358 kts 235°
2026-05-07 14:15 52.76303 6.15921 16925 ft 358 kts 235°
2026-05-07 14:15 52.74880 6.12555 16353 ft 357 kts 235°
2026-05-07 14:15 52.73461 6.09196 15786 ft 356 kts 235°
2026-05-07 14:16 52.72042 6.05842 15224 ft 356 kts 235°
2026-05-07 14:16 52.70628 6.02505 14696 ft 355 kts 235°
2026-05-07 14:16 52.69212 5.99174 14160 ft 354 kts 235°
2026-05-07 14:16 52.67803 5.95861 13602 ft 353 kts 235°
2026-05-07 14:17 52.66397 5.92558 13013 ft 351 kts 235°
2026-05-07 14:17 52.64999 5.89279 12436 ft 349 kts 235°
2026-05-07 14:17 52.63605 5.86019 11872 ft 347 kts 235°
2026-05-07 14:17 52.62223 5.82781 11310 ft 345 kts 235°
2026-05-07 14:18 52.60848 5.79555 10687 ft 344 kts 235°
2026-05-07 14:18 52.59477 5.76349 10078 ft 342 kts 235°
2026-05-07 14:18 52.58134 5.73211 9482 ft 326 kts 235°
2026-05-07 14:18 52.56866 5.70247 8946 ft 309 kts 234°
2026-05-07 14:19 52.55660 5.67433 8417 ft 294 kts 234°
2026-05-07 14:19 52.54501 5.64745 7909 ft 282 kts 234°
2026-05-07 14:19 52.53403 5.62124 7406 ft 276 kts 240°
2026-05-07 14:19 52.52669 5.59222 7118 ft 274 kts 248°
2026-05-07 14:20 52.52000 5.56283 7075 ft 276 kts 249°
2026-05-07 14:20 52.51337 5.53372 7082 ft 276 kts 248°
2026-05-07 14:20 52.50665 5.50418 7084 ft 276 kts 249°
2026-05-07 14:20 52.49991 5.47468 7085 ft 275 kts 249°
2026-05-07 14:21 52.49323 5.44547 7086 ft 272 kts 249°
2026-05-07 14:21 52.48658 5.41636 7084 ft 272 kts 249°
2026-05-07 14:21 52.47994 5.38727 7084 ft 272 kts 248°
2026-05-07 14:21 52.47330 5.35824 7084 ft 272 kts 249°
2026-05-07 14:22 52.46665 5.32918 7083 ft 272 kts 249°
2026-05-07 14:22 52.45998 5.30011 7084 ft 273 kts 249°
2026-05-07 14:22 52.45331 5.27108 7082 ft 272 kts 248°
2026-05-07 14:22 52.44664 5.24204 7082 ft 272 kts 248°
2026-05-07 14:23 52.43996 5.21297 7079 ft 272 kts 248°
2026-05-07 14:23 52.43271 5.18441 7078 ft 271 kts 239°
2026-05-07 14:23 52.42225 5.15861 6876 ft 271 kts 234°
2026-05-07 14:23 52.41117 5.13369 6542 ft 270 kts 233°
2026-05-07 14:24 52.40002 5.10898 6125 ft 269 kts 232°
2026-05-07 14:24 52.38892 5.08434 5711 ft 268 kts 233°
2026-05-07 14:24 52.37785 5.05980 5294 ft 268 kts 233°
2026-05-07 14:24 52.36679 5.03534 4891 ft 267 kts 233°
2026-05-07 14:25 52.35574 5.01108 4461 ft 266 kts 233°
2026-05-07 14:25 52.34463 4.98697 4109 ft 264 kts 233°
2026-05-07 14:25 52.33352 4.96307 4082 ft 265 kts 233°
2026-05-07 14:25 52.32250 4.93938 4084 ft 266 kts 233°
2026-05-07 14:26 52.31114 4.91499 4081 ft 266 kts 233°
2026-05-07 14:26 52.30004 4.89122 3974 ft 268 kts 233°
2026-05-07 14:26 52.28881 4.86721 3652 ft 265 kts 232°
2026-05-07 14:26 52.27765 4.84330 3349 ft 264 kts 233°
2026-05-07 14:27 52.26652 4.81938 3033 ft 265 kts 233°
2026-05-07 14:27 52.25552 4.79567 2726 ft 259 kts 232°
2026-05-07 14:27 52.24477 4.77246 2415 ft 254 kts 232°
2026-05-07 14:27 52.23424 4.74971 2168 ft 248 kts 232°
2026-05-07 14:28 52.22409 4.72777 2035 ft 236 kts 233°
2026-05-07 14:28 52.21436 4.70684 2012 ft 229 kts 233°
2026-05-07 14:28 52.20496 4.68679 2000 ft 220 kts 233°
2026-05-07 14:28 52.19576 4.66717 2001 ft 216 kts 233°
2026-05-07 14:29 52.18671 4.64785 2001 ft 215 kts 233°
2026-05-07 14:29 52.17761 4.62871 2031 ft 211 kts 232°
2026-05-07 14:29 52.16866 4.60992 1997 ft 209 kts 232°
2026-05-07 14:29 52.15982 4.59135 1993 ft 207 kts 233°
2026-05-07 14:30 52.15103 4.57260 2002 ft 207 kts 237°
2026-05-07 14:30 52.14725 4.55066 2005 ft 203 kts 275°
2026-05-07 14:30 52.15231 4.52996 2001 ft 199 kts 314°
2026-05-07 14:30 52.16320 4.51643 2014 ft 197 kts 330°
2026-05-07 14:31 52.17572 4.50860 2004 ft 193 kts 358°
2026-05-07 14:31 52.18822 4.51385 2010 ft 179 kts 27°
2026-05-07 14:31 52.19871 4.52377 2000 ft 172 kts 33°
2026-05-07 14:31 52.20870 4.53394 2001 ft 169 kts 35°
2026-05-07 14:32 52.21609 4.54837 2007 ft 167 kts 59°
2026-05-07 14:32 52.22223 4.56426 2009 ft 159 kts 58°
2026-05-07 14:32 52.22776 4.57841 2006 ft 140 kts 58°
2026-05-07 14:32 52.23275 4.59124 1975 ft 132 kts 57°
2026-05-07 14:33 52.23765 4.60387 1875 ft 132 kts 58°
2026-05-07 14:33 52.24247 4.61634 1721 ft 130 kts 57°
2026-05-07 14:33 52.24725 4.62868 1563 ft 128 kts 56°
2026-05-07 14:33 52.25200 4.64099 1387 ft 130 kts 56°
2026-05-07 14:34 52.25678 4.65336 1220 ft 129 kts 56°
2026-05-07 14:34 52.26154 4.66570 1041 ft 130 kts 54°
2026-05-07 14:34 52.26632 4.67809 850 ft 128 kts 54°
2026-05-07 14:34 52.27104 4.69033 702 ft 126 kts 54°
2026-05-07 14:35 52.27575 4.70256 530 ft 127 kts 55°
2026-05-07 14:35 52.28048 4.71482 363 ft 129 kts 56°
2026-05-07 14:35 52.28524 4.72719 196 ft 129 kts 56°
2026-05-07 14:35 52.29003 4.73960 18 ft 127 kts 54°
2026-05-07 14:36 52.29419 4.75025 -1 ft 90 kts 58°
2026-05-07 14:36 52.29655 4.75650 -1 ft 31 kts 57°
2026-05-07 14:36 52.29818 4.75834 -1 ft 23 kts 28°
2026-05-07 14:36 52.29909 4.75911 -1 ft 1 kts 27°
2026-05-07 14:37 52.29934 4.75932 -1 ft 11 kts 27°
2026-05-07 14:38 52.30020 4.75944 -1 ft 14 kts 333°
2026-05-07 14:38 52.30094 4.75999 -1 ft 10 kts 56°
2026-05-07 14:38 52.30138 4.76112 -1 ft 13 kts 60°
2026-05-07 14:38 52.30192 4.76251 -1 ft 16 kts 58°
2026-05-07 14:39 52.30236 4.76366 -1 ft 10 kts 58°
2026-05-07 14:39 52.30274 4.76467 -1 ft 12 kts 58°
2026-05-07 14:39 52.30345 4.76523 -1 ft 14 kts 339°
2026-05-07 14:39 52.30427 4.76443 -1 ft 9 kts 315°
2026-05-07 14:40 52.30416 4.76378 -1 ft 6 kts 240°
2026-05-07 14:40 52.30408 4.76356 -1 ft 0 kts 239°